Location: Bouchavesnes-Bergen
(49.9859°N, 2.9203°E)
Time: 04:27:33
(UTC+00:00)

NOSS 3-2 (A) - Pass Details

Date: 09 March 2021
Orbit: 780 x 1427 km, 63.4° (Epoch: 31 March)

Event Time Altitude Azimuth Distance (km) Brightness Sun altitude
Rises 03:31:27 0° 316° (NW) 3,933 6.5 -26.3°
Reaches altitude 10° 03:33:59 10° 314° (NW) 3,059 5.9 -26.0°
Maximum altitude 03:41:22 68° 234° (SW) 1,369 3.9 -24.9°
Drops below altitude 10° 03:49:46 10° 154° (SSE) 3,451 6.4 -23.7°
Sets 03:52:48 0° 152° (SSE) 4,464 7.0 -23.2°
